SAUDISAT 5A

Last updated on Thu Oct 30 2025 00:02:32 GMT+0000 (Coordinated Universal Time)

1 43831U 18102A 25302.50752882 .00008623 00000+0 34949-3 0 9990 2 43831 97.3413 3.5623 0009269 223.3217 136.7293 15.24849791380487
UTC large
Height (km)
Speed (km/s)
/
Latitude / Longitude
Inclination (degrees)
Orbital Period (minutes)
Azimuth
Elevation
Range (km)
Doppler Factor

Next 0 passes for location: London (51.5072 / 0.1276)

Sorry there are no passes over London.